Simultaneous Nadir Overpasses (SNOs) Predictions

Prediction of SNOs between GOES-17 and LANDSAT-8 Satellite Orbit:

Table of predicted SNOs for the next 14.0 days since TLE Epoch: 4/15/2023
Index Date Time (GOES-17) GOES-17 Lat,Lon LANDSAT-8 Lat,Lon Distance(km) Time Diff (sec)
1 04/17/2023 05:15:20 -0.00,-104.71 -0.19,-105.50 90.38 80
2 04/19/2023 05:00:28 -0.00,-104.71 0.47,-102.55 246.22 80
3 04/19/2023 17:21:43 0.00,-104.75 0.63,-107.71 336.13 80
4 04/21/2023 17:12:10 0.00,-104.75 0.00,-104.75 0.68 80
5 04/23/2023 16:59:57 0.01,-104.76 -0.65,-101.79 337.56 80
6 04/24/2023 05:21:20 -0.01,-104.72 -0.49,-106.98 256.41 80
7 04/26/2023 05:06:26 -0.01,-104.72 0.13,-104.01 80.51 80
8 04/28/2023 04:54:12 0.00,-104.73 0.77,-101.05 417.59 80
9 04/28/2023 17:15:27 -0.00,-104.76 0.32,-106.21 165.01 80
